Change the Weather History Date:

Saturday, November 23, 2013

  Actual Average Record
Temperature  
Mean Temperature 9 °F -  
Max Temperature 15 °F 36 °F 59 °F (2006)
Min Temperature 3 °F 21 °F 1 °F (1970)
Degree Days  
Heating Degree Days 56    
Moisture  
Dew Point 1 °F    
Average Humidity 71    
Maximum Humidity 85    
Minimum Humidity 53    
Precipitation  
Precipitation 0.00 in - - ()
Sea Level Pressure  
Sea Level Pressure 30.72 in    
Wind  
Wind Speed 12 mph (WNW)    
Max Wind Speed 17 mph    
Max Gust Speed 26 mph    
Visibility 10 miles    
Events      
Averages and records for this station are not official NWS values.
T = Trace of Precipitation, MM = Missing Value Source: NWS Daily Summary

Daily Weather History Graph

Daily Weather History Graph

Search for Another Location

Airport or City:

Trip Planner

Search our weather history database for the weather conditions in past years. The results will help you decide how hot, cold, wet, or windy it might be!

Date:

Astronomy

Nov. 23, 2013 Rise Set
Actual Time 7:18 AM CST 4:39 PM CST
Civil Twilight 6:47 AM CST 5:11 PM CST
Nautical Twilight 6:11 AM CST 5:47 PM CST
Astronomical Twilight 5:36 AM CST 6:21 PM CST
Moon 10:13 PM CST (11/23) 11:31 AM CST (11/23)
Length of Visible Light 10h 24m
Length of Day
9h 20m
Waning Gibbous, 69% of the Moon is Illuminated
Nov 23
Waning Gibbous
Nov 25
Last Quarter
Dec 2
New
Dec 9
First Quarter
Dec 17
Full

Hourly Weather History & Observations

Time (CST) Temp. Windchill Dew Point Humidity Pressure Visibility Wind Dir Wind Speed Gust Speed Precip Events Conditions
12:01 AM 14.0 °F -2.0 °F 5.0 °F 67% 30.57 in 10.0 mi NW 16.1 mph - N/A   Clear
12:21 AM 12.2 °F -4.3 °F 3.2 °F 67% 30.58 in 10.0 mi NW 16.1 mph 21.9 mph N/A   Clear
12:41 AM 12.2 °F -4.8 °F 3.2 °F 67% 30.59 in 10.0 mi NW 17.3 mph 26.5 mph N/A   Clear
1:01 AM 12.2 °F -4.8 °F 3.2 °F 67% 30.60 in 10.0 mi NNW 17.3 mph - N/A   Clear
1:21 AM 10.4 °F -7.2 °F 3.2 °F 73% 30.60 in 10.0 mi NNW 17.3 mph - N/A   Clear
1:41 AM 10.4 °F -6.6 °F 3.2 °F 73% 30.61 in 10.0 mi NNW 16.1 mph 21.9 mph N/A   Clear
2:01 AM 10.4 °F -6.0 °F 3.2 °F 73% 30.62 in 10.0 mi NNW 15.0 mph 19.6 mph N/A   Clear
2:21 AM 10.4 °F -4.8 °F 3.2 °F 73% 30.63 in 10.0 mi NNW 12.7 mph - N/A   Scattered Clouds
2:41 AM 10.4 °F -3.3 °F 3.2 °F 73% 30.64 in 10.0 mi NW 10.4 mph - N/A   Mostly Cloudy
3:01 AM 8.6 °F -7.7 °F 1.4 °F 73% 30.65 in 10.0 mi NW 13.8 mph - N/A   Scattered Clouds
3:21 AM 8.6 °F -7.7 °F 1.4 °F 73% 30.65 in 10.0 mi NW 13.8 mph - N/A   Clear
3:41 AM 8.6 °F -6.3 °F 1.4 °F 73% 30.65 in 10.0 mi NW 11.5 mph - N/A   Clear
4:01 AM 8.6 °F -4.7 °F 1.4 °F 73% 30.65 in 10.0 mi NNW 9.2 mph - N/A   Clear
4:21 AM 6.8 °F -8.6 °F 1.4 °F 79% 30.66 in 10.0 mi NNW 11.5 mph - N/A   Clear
4:41 AM 6.8 °F -7.8 °F 1.4 °F 79% 30.67 in 10.0 mi NW 10.4 mph - N/A   Clear
5:01 AM 6.8 °F -5.9 °F 1.4 °F 79% 30.68 in 10.0 mi NW 8.1 mph - N/A   Clear
5:21 AM 6.8 °F -4.8 °F 1.4 °F 79% 30.69 in 10.0 mi NW 6.9 mph - N/A   Clear
5:41 AM 6.8 °F -7.8 °F 1.4 °F 79% 30.70 in 10.0 mi NNW 10.4 mph - N/A   Clear
6:01 AM 6.8 °F -5.9 °F 1.4 °F 79% 30.71 in 10.0 mi NW 8.1 mph - N/A   Clear
6:21 AM 6.8 °F -5.9 °F 1.4 °F 79% 30.72 in 10.0 mi NW 8.1 mph - N/A   Clear
6:41 AM 5.0 °F -6.9 °F 1.4 °F 85% 30.73 in 10.0 mi NW 6.9 mph - N/A   Clear
7:01 AM 5.0 °F -6.9 °F 1.4 °F 85% 30.74 in 10.0 mi WNW 6.9 mph - N/A   Clear
7:21 AM 3.2 °F -10.3 °F -0.4 °F 85% 30.75 in 10.0 mi WNW 8.1 mph - N/A   Clear
7:41 AM 5.0 °F -8.1 °F -0.4 °F 78% 30.76 in 10.0 mi WNW 8.1 mph - N/A   Clear
8:21 AM 6.8 °F -8.6 °F 1.4 °F 79% 30.78 in 10.0 mi WNW 11.5 mph - N/A   Clear
8:41 AM 6.8 °F -8.6 °F 1.4 °F 79% 30.78 in 10.0 mi WNW 11.5 mph - N/A   Clear
9:01 AM 8.6 °F -7.0 °F 3.2 °F 79% 30.79 in 10.0 mi NW 12.7 mph - N/A   Clear
9:21 AM 8.6 °F -6.3 °F 3.2 °F 79% 30.80 in 10.0 mi WNW 11.5 mph - N/A   Clear
9:41 AM 8.6 °F -7.0 °F 3.2 °F 79% 30.80 in 10.0 mi NW 12.7 mph 17.3 mph N/A   Clear
10:01 AM 10.4 °F -4.1 °F 3.2 °F 73% 30.80 in 10.0 mi NW 11.5 mph - N/A   Scattered Clouds
10:21 AM 10.4 °F -6.0 °F 3.2 °F 73% 30.80 in 10.0 mi NW 15.0 mph - N/A   Scattered Clouds
10:41 AM 10.4 °F -6.0 °F 3.2 °F 73% 30.80 in 10.0 mi NNW 15.0 mph - N/A   Scattered Clouds
11:01 AM 12.2 °F -3.7 °F 3.2 °F 67% 30.79 in 10.0 mi NW 15.0 mph - N/A   Scattered Clouds
11:21 AM 12.2 °F -2.5 °F 3.2 °F 67% 30.78 in 10.0 mi NW 12.7 mph 17.3 mph N/A   Mostly Cloudy
11:41 AM 12.2 °F -3.1 °F 3.2 °F 67% 30.78 in 10.0 mi NNW 13.8 mph 18.4 mph N/A   Mostly Cloudy
12:01 PM 12.2 °F -3.7 °F 3.2 °F 67% 30.78 in 10.0 mi NW 15.0 mph 19.6 mph N/A   Scattered Clouds
12:21 PM 14.0 °F -0.8 °F 3.2 °F 62% 30.77 in 10.0 mi NNW 13.8 mph - N/A   Scattered Clouds
12:41 PM 15.8 °F 2.1 °F 3.2 °F 58% 30.77 in 10.0 mi NW 12.7 mph 18.4 mph N/A   Clear
1:01 PM 15.8 °F 2.1 °F 3.2 °F 58% 30.76 in 10.0 mi NW 12.7 mph 16.1 mph N/A   Clear
1:21 PM 15.8 °F 1.4 °F 3.2 °F 58% 30.76 in 10.0 mi WNW 13.8 mph 21.9 mph N/A   Clear
1:41 PM 15.8 °F 0.9 °F 1.4 °F 53% 30.75 in 10.0 mi NW 15.0 mph 21.9 mph N/A   Clear
2:01 PM 15.8 °F 2.1 °F 1.4 °F 53% 30.76 in 10.0 mi NW 12.7 mph - N/A   Clear
2:21 PM 15.8 °F 0.9 °F 1.4 °F 53% 30.75 in 10.0 mi WNW 15.0 mph 18.4 mph N/A   Clear
2:41 PM 15.8 °F 2.1 °F 1.4 °F 53% 30.75 in 10.0 mi WNW 12.7 mph - N/A   Clear
3:01 PM 15.8 °F 3.4 °F 1.4 °F 53% 30.74 in 10.0 mi NW 10.4 mph - N/A   Clear
3:21 PM 15.8 °F 2.1 °F 1.4 °F 53% 30.74 in 10.0 mi NW 12.7 mph - N/A   Clear
3:41 PM 15.8 °F 2.7 °F 1.4 °F 53% 30.75 in 10.0 mi NW 11.5 mph - N/A   Clear
4:01 PM 15.8 °F 2.7 °F 1.4 °F 53% 30.75 in 10.0 mi NW 11.5 mph - N/A   Clear
4:21 PM 14.0 °F 2.0 °F 1.4 °F 57% 30.75 in 10.0 mi WNW 9.2 mph - N/A   Clear
4:41 PM 12.2 °F 1.7 °F 1.4 °F 62% 30.74 in 10.0 mi WNW 6.9 mph - N/A   Clear
5:01 PM 10.4 °F 2.2 °F 1.4 °F 67% 30.74 in 10.0 mi WNW 4.6 mph - N/A   Clear
5:21 PM 10.4 °F 2.2 °F 1.4 °F 67% 30.74 in 10.0 mi West 4.6 mph - N/A   Clear
5:41 PM 8.6 °F -1.3 °F -0.4 °F 67% 30.74 in 10.0 mi West 5.8 mph - N/A   Clear
6:01 PM 8.6 °F 0.1 °F -0.4 °F 67% 30.74 in 10.0 mi WSW 4.6 mph - N/A   Clear
6:21 PM 8.6 °F 0.1 °F -0.4 °F 67% 30.73 in 10.0 mi WSW 4.6 mph - N/A   Clear
6:41 PM 8.6 °F 0.1 °F -0.4 °F 67% 30.74 in 10.0 mi West 4.6 mph - N/A   Clear
7:01 PM 6.8 °F -2.0 °F -0.4 °F 72% 30.73 in 10.0 mi West 4.6 mph - N/A   Clear
7:21 PM 6.8 °F - -0.4 °F 72% 30.73 in 10.0 mi WNW 1.2 mph - N/A   Clear
7:41 PM 6.8 °F -0.1 °F -0.4 °F 72% 30.73 in 10.0 mi West 3.5 mph - N/A   Clear
8:01 PM 6.8 °F - 1.4 °F 79% 30.72 in 10.0 mi Calm Calm - N/A   Clear
8:21 PM 3.2 °F - -2.2 °F 78% 30.72 in 10.0 mi West 1.2 mph - N/A   Clear
8:41 PM 3.2 °F - -2.2 °F 78% 30.72 in 10.0 mi WNW 2.3 mph - N/A   Clear
9:01 PM 3.2 °F -7.8 °F -2.2 °F 78% 30.72 in 10.0 mi West 5.8 mph - N/A   Clear
9:21 PM 3.2 °F -6.2 °F -2.2 °F 78% 30.71 in 10.0 mi West 4.6 mph - N/A   Clear
9:41 PM 5.0 °F - -2.2 °F 72% 30.70 in 10.0 mi West 2.3 mph - N/A   Clear
10:01 PM 3.2 °F -7.8 °F -2.2 °F 78% 30.71 in 10.0 mi WSW 5.8 mph - N/A   Clear
10:21 PM 3.2 °F -6.2 °F -2.2 °F 78% 30.70 in 10.0 mi WSW 4.6 mph - N/A   Clear
10:41 PM 3.2 °F -7.8 °F -2.2 °F 78% 30.70 in 10.0 mi SW 5.8 mph - N/A   Clear
11:01 PM 5.0 °F -5.6 °F -0.4 °F 78% 30.69 in 10.0 mi SW 5.8 mph - N/A   Clear
11:21 PM 5.0 °F -5.6 °F -0.4 °F 78% 30.69 in 10.0 mi WSW 5.8 mph - N/A   Clear
11:41 PM 5.0 °F -5.6 °F -0.4 °F 78% 30.70 in 10.0 mi SW 5.8 mph - N/A   Clear